Marysville, CA

12:22 AM PDT on August 25, 2019 (GMT -0700)
Yuba County

Weather History for KMYV - June, 2019

Change the Weather History Date:

Sunday, June 2, 2019

  Actual Average Record
Temperature  
Mean Temperature 74 °F -  
Max Temperature 87 °F 87 °F 104 °F (1960)
Min Temperature 60 °F 56 °F 45 °F (1966)
Cooling Degree Days 8    
Growing Degree Days 24 (Base 50)    
Moisture  
Dew Point 59 °F    
Average Humidity 61    
Maximum Humidity 87    
Minimum Humidity 40    
Precipitation  
Precipitation 0.00 in - - ()
Sea Level Pressure  
Sea Level Pressure 29.80 in    
Wind  
Wind Speed 7 mph (South)    
Max Wind Speed 13 mph    
Max Gust Speed 21 mph    
Visibility 10 miles    
Events      
Averages and records for this station are not official NWS values.
T = Trace of Precipitation, MM = Missing Value Source: NWS Daily Summary

Daily Weather History Graph

Daily Weather History Graph

Search for Another Location

Airport or City:

Astronomy

Jun. 02, 2019 Rise Set
Actual Time 5:41 AM PDT 8:27 PM PDT
Civil Twilight 5:10 AM PDT 8:58 PM PDT
Nautical Twilight 4:30 AM PDT 9:38 PM PDT
Astronomical Twilight 3:45 AM PDT 10:23 PM PDT
Moon 5:24 AM PDT (6/2) 7:52 PM PDT (6/2)
Length of Visible Light 15h 48m
Length of Day
14h 45m
Waning Crescent, 1% of the Moon is Illuminated
Jun 2
Waning Crescent
Jun 3
New
Jun 9
First Quarter
Jun 17
Full
Jun 25
Last Quarter

Hourly Weather History & Observations

Time (PDT) Temp. Heat Index Dew Point Humidity Pressure Visibility Wind Dir Wind Speed Gust Speed Precip Events Conditions
12:53 AM 68.0 °F - 57.9 °F 70% 29.77 in 10.0 mi ESE 5.8 mph - N/A   Clear
1:53 AM 66.0 °F - 59.0 °F 78% 29.77 in 10.0 mi East 5.8 mph - N/A   Clear
2:53 AM 66.0 °F - 57.0 °F 73% 29.77 in 10.0 mi ESE 5.8 mph - N/A   Clear
3:53 AM 63.0 °F - 57.0 °F 81% 29.77 in 10.0 mi South 3.5 mph - N/A   Clear
4:53 AM 61.0 °F - 57.0 °F 87% 29.78 in 10.0 mi SSW 3.5 mph - N/A   Clear
5:53 AM 60.1 °F - 55.0 °F 83% 29.79 in 10.0 mi South 5.8 mph - N/A   Clear
6:53 AM 61.0 °F - 55.9 °F 83% 29.82 in 10.0 mi SW 3.5 mph - N/A   Clear
7:53 AM 64.0 °F - 55.9 °F 75% 29.83 in 10.0 mi SE 5.8 mph - N/A   Clear
8:53 AM 68.0 °F - 57.0 °F 68% 29.85 in 10.0 mi SE 8.1 mph - N/A   Clear
9:53 AM 72.0 °F - 57.9 °F 61% 29.84 in 10.0 mi SSE 8.1 mph - N/A   Clear
10:53 AM 75.9 °F - 57.9 °F 54% 29.84 in 10.0 mi SSW 5.8 mph - N/A   Clear
11:53 AM 79.0 °F - 60.1 °F 52% 29.84 in 10.0 mi South 4.6 mph - N/A   Clear
12:53 PM 82.0 °F 82.4 °F 60.1 °F 47% 29.83 in 10.0 mi SSW 8.1 mph - N/A   Clear
1:53 PM 84.0 °F 84.4 °F 61.0 °F 46% 29.81 in 10.0 mi SSW 8.1 mph - N/A   Clear
2:53 PM 84.9 °F 84.4 °F 59.0 °F 41% 29.79 in 10.0 mi SW 6.9 mph - N/A   Clear
3:53 PM 84.9 °F 84.2 °F 57.9 °F 40% 29.78 in 10.0 mi SSW 6.9 mph - N/A   Clear
4:53 PM 87.1 °F 86.7 °F 60.1 °F 40% 29.77 in 10.0 mi South 5.8 mph - N/A   Clear
5:53 PM 86.0 °F 85.4 °F 59.0 °F 40% 29.77 in 10.0 mi SE 9.2 mph - N/A   Clear
6:53 PM 86.0 °F 85.4 °F 59.0 °F 40% 29.77 in 10.0 mi SSE 12.7 mph - N/A   Clear
7:53 PM 80.1 °F 81.2 °F 62.1 °F 54% 29.78 in 10.0 mi South 11.5 mph 20.7 mph 0.00 in   Clear
8:53 PM 75.0 °F - 61.0 °F 62% 29.79 in 10.0 mi South 8.1 mph - 0.00 in   Clear
9:53 PM 73.0 °F - 60.1 °F 64% 29.82 in 10.0 mi SSE 10.4 mph - N/A   Clear
10:53 PM 71.1 °F - 59.0 °F 66% 29.85 in 10.0 mi SE 10.4 mph - N/A   Clear
11:53 PM 71.1 °F - 59.0 °F 66% 29.85 in 10.0 mi SSE 11.5 mph - N/A   Clear